User: anonymous   Login
Location: Unspecified
(0.0000°N, 0.0000°E)
Time: 08:27:00
(UTC+02:00)
Language:

Cosmos 1072 Rocket - Orbit

View from above orbital plane
View from above orbital plane
View from above satellite
View from above satellite

Ground track
Ground track

The orbit data is extracted from the following two-line orbital elements,

1 11239U 79003B   15216.56570395 -.00000039  00000-0 -55939-4 0  9999
2 11239 082.9357 235.2257 0041796 138.2420 333.3542 13.75777843833992
Epoch (UTC): 04 August 2015 13:34:36
Eccentricity: 0.0041796
inclination: 82.9357°
perigee height: 948 km
apogee height: 1009 km
right ascension of ascending node: 235.2257°
argument of perigee: 138.2420°
revolutions per day: 13.75777843
mean anomaly at epoch: 333.3542°
orbit number at epoch: 83399

The dashed part of the orbit path shows where the satellite is in the earth's shadow,  

DLR